Rockport, TX

6:47 PM CST on January 18, 2018 (GMT -0600)
Aransas County

Weather History for KRKP - October, 2013

Change the Weather History Date:

Monday, October 28, 2013

  Actual Average Record
Temperature  
Mean Temperature 78 °F -  
Max Temperature 84 °F 79 °F 90 °F (2007)
Min Temperature 72 °F 62 °F 44 °F (2017)
Cooling Degree Days 13    
Growing Degree Days 28 (Base 50)    
Moisture  
Dew Point 71 °F    
Average Humidity 81    
Maximum Humidity 97    
Minimum Humidity 63    
Precipitation  
Precipitation 0.00 in - - ()
Sea Level Pressure  
Sea Level Pressure 30.03 in    
Wind  
Wind Speed 9 mph (SE)    
Max Wind Speed 17 mph    
Max Gust Speed 22 mph    
Visibility 10 miles    
Events      
Averages and records for this station are not official NWS values.
T = Trace of Precipitation, MM = Missing Value Source: NWS Daily Summary

Daily Weather History Graph

Daily Weather History Graph

Search for Another Location

Airport or City:

Trip Planner

Search our weather history database for the weather conditions in past years. The results will help you decide how hot, cold, wet, or windy it might be!

Date:

Astronomy

Oct. 28, 2013 Rise Set
Actual Time 7:36 AM CDT 6:46 PM CDT
Civil Twilight 7:12 AM CDT 7:10 PM CDT
Nautical Twilight 6:45 AM CDT 7:38 PM CDT
Astronomical Twilight 6:17 AM CDT 8:05 PM CDT
Moon 2:00 AM CDT (10/28) 3:02 PM CDT (10/28)
Length of Visible Light 11h 57m
Length of Day
11h 09m
Waning Crescent, 34% of the Moon is Illuminated
Oct 28
Waning Crescent
Nov 3
New
Nov 9
First Quarter
Nov 17
Full
Nov 25
Last Quarter

Hourly Weather History & Observations

Time (CDT) Temp. Heat Index Dew Point Humidity Pressure Visibility Wind Dir Wind Speed Gust Speed Precip Events Conditions
12:53 AM 73.9 °F - 72.0 °F 93% 30.01 in 10.0 mi SSE 5.8 mph - N/A   Clear
1:53 AM 73.9 °F - 71.1 °F 91% 30.00 in 10.0 mi SSE 5.8 mph - N/A   Clear
2:53 AM 73.9 °F - 71.1 °F 91% 30.01 in 10.0 mi SSE 5.8 mph - N/A   Clear
3:53 AM 73.0 °F - 71.1 °F 93% 29.99 in 10.0 mi SE 4.6 mph - N/A   Clear
4:53 AM 73.0 °F - 71.1 °F 93% 30.00 in 10.0 mi SSE 4.6 mph - N/A   Clear
5:53 AM 73.0 °F - 71.1 °F 93% 30.00 in 10.0 mi SSE 3.5 mph - N/A   Clear
6:53 AM 72.0 °F - 70.0 °F 93% 30.02 in 8.0 mi SE 3.5 mph - N/A   Clear
7:53 AM 72.0 °F - 71.1 °F 97% 30.03 in 6.0 mi SE 4.6 mph - N/A   Clear
8:53 AM 75.0 °F - 73.0 °F 94% 30.05 in 9.0 mi SE 4.6 mph - N/A   Clear
9:53 AM 79.0 °F - 73.0 °F 82% 30.07 in 10.0 mi SE 9.2 mph - N/A   Scattered Clouds
10:53 AM 81.0 °F 85.2 °F 72.0 °F 74% 30.08 in 10.0 mi SSE 13.8 mph - N/A   Partly Cloudy
11:53 AM 82.9 °F 88.0 °F 72.0 °F 69% 30.07 in 10.0 mi SE 12.7 mph 20.7 mph N/A   Clear
12:53 PM 84.0 °F 89.6 °F 72.0 °F 67% 30.06 in 10.0 mi SE 13.8 mph - N/A   Clear
1:53 PM 84.0 °F 88.4 °F 70.0 °F 63% 30.03 in 10.0 mi SE 15.0 mph - N/A   Clear
2:53 PM 82.9 °F 87.0 °F 70.0 °F 65% 30.01 in 10.0 mi SSE 15.0 mph 21.9 mph N/A   Clear
3:53 PM 82.9 °F 87.5 °F 71.1 °F 67% 30.01 in 10.0 mi SE 15.0 mph 20.7 mph N/A   Clear
4:53 PM 82.0 °F 85.9 °F 70.0 °F 67% 30.00 in 10.0 mi SE 17.3 mph - N/A   Clear
5:53 PM 80.1 °F 83.2 °F 70.0 °F 71% 30.01 in 10.0 mi SE 13.8 mph - N/A   Partly Cloudy
6:53 PM 78.1 °F - 71.1 °F 79% 30.02 in 10.0 mi SE 13.8 mph - N/A   Clear
7:53 PM 77.0 °F - 70.0 °F 79% 30.01 in 10.0 mi SE 12.7 mph - N/A   Clear
8:53 PM 77.0 °F - 70.0 °F 79% 30.04 in 10.0 mi SE 11.5 mph - N/A   Clear
9:53 PM 77.0 °F - 71.1 °F 82% 30.05 in 10.0 mi SE 13.8 mph - N/A   Clear
10:53 PM 77.0 °F - 71.1 °F 82% 30.05 in 10.0 mi SE 15.0 mph - N/A   Clear
11:53 PM 77.0 °F - 71.1 °F 82% 30.05 in 10.0 mi SE 15.0 mph - N/A   Clear